| time (UTC) | temp C | wind direction | speed KPH | gust KPH | rain 1hr cm | rain 24hr cm | rain mn cm | humidity % | barometer mb |
| 20260506224537 | 8 | 0 | 1.6 | 6.4 | 0.00 | 0.00 | 0.00 | 85 | 1014.0 |
| 20260506224017 | 8 | 360 | 1.6 | 6.4 | 0.00 | 0.00 | 0.00 | 85 | 1013.9 |
| 20260506223515 | 8 | 360 | 1.6 | 4.8 | 0.00 | 0.00 | 0.00 | 84 | 1013.9 |
| 20260506223032 | 8 | 360 | 1.6 | 6.4 | 0.00 | 0.00 | 0.00 | 84 | 1013.8 |
| 20260506222515 | 8 | 0 | 1.6 | 6.4 | 0.00 | 0.00 | 0.00 | 84 | 1013.9 |
| 20260506222018 | 8 | 0 | 0.0 | 6.4 | 0.00 | 0.00 | 0.00 | 83 | 1013.8 |
| 20260506221532 | 8 | 0 | 1.6 | 6.4 | 0.00 | 0.00 | 0.00 | 83 | 1013.8 |
| 20260506221014 | 8 | 360 | 1.6 | 6.4 | 0.00 | 0.00 | 0.00 | 83 | 1013.8 |
| 20260506220517 | 8 | 360 | 1.6 | 6.4 | 0.00 | 0.00 | 0.00 | 82 | 1013.6 |
| 20260506220038 | 8 | 360 | 1.6 | 6.4 | 0.00 | 0.00 | 0.00 | 82 | 1013.7 |
| 20260506215519 | 8 | 360 | 1.6 | 6.4 | 0.00 | 0.00 | 0.00 | 82 | 1013.6 |
| 20260506215016 | 8 | 360 | 0.0 | 4.8 | 0.00 | 0.00 | 0.00 | 81 | 1013.6 |
| 20260506214536 | 9 | 0 | 0.0 | 4.8 | 0.00 | 0.00 | 0.00 | 80 | 1013.6 |
| 20260506214017 | 9 | 0 | 0.0 | 6.4 | 0.00 | 0.00 | 0.00 | 80 | 1013.6 |
| 20260506213517 | 9 | 360 | 1.6 | 8.0 | 0.00 | 0.00 | 0.00 | 79 | 1013.5 |
| 20260506213038 | 10 | 360 | 1.6 | 8.0 | 0.00 | 0.00 | 0.00 | 79 | 1013.5 |
| 20260506212515 | 10 | 5 | 1.6 | 6.4 | 0.00 | 0.00 | 0.00 | 78 | 1013.4 |
| 20260506212020 | 10 | 5 | 0.0 | 6.4 | 0.00 | 0.00 | 0.00 | 78 | 1013.4 |
| 20260506211534 | 10 | 0 | 1.6 | 6.4 | 0.00 | 0.00 | 0.00 | 76 | 1013.3 |
| 20260506211016 | 10 | 5 | 0.0 | 6.4 | 0.00 | 0.00 | 0.00 | 75 | 1013.3 |
| 20260506210513 | 10 | 0 | 0.0 | 6.4 | 0.00 | 0.00 | 0.00 | 74 | 1013.2 |
| 20260506210035 | 10 | 9 | 1.6 | 8.0 | 0.00 | 0.00 | 0.00 | 73 | 1013.4 |
| 20260506205514 | 10 | 5 | 1.6 | 8.0 | 0.00 | 0.00 | 0.00 | 73 | 1013.2 |
| 20260506205015 | 11 | 360 | 3.2 | 8.0 | 0.00 | 0.00 | 0.00 | 73 | 1013.2 |
| 20260506204536 | 11 | 360 | 3.2 | 9.7 | 0.00 | 0.00 | 0.00 | 73 | 1013.2 |
| 20260506204015 | 11 | 360 | 3.2 | 9.7 | 0.00 | 0.00 | 0.00 | 72 | 1013.1 |
| 20260506203515 | 11 | 352 | 3.2 | 9.7 | 0.00 | 0.00 | 0.00 | 72 | 1013.2 |
| 20260506203033 | 11 | 352 | 3.2 | 9.7 | 0.00 | 0.00 | 0.00 | 72 | 1013.0 |
| 20260506202517 | 11 | 352 | 3.2 | 9.7 | 0.00 | 0.00 | 0.00 | 72 | 1013.0 |
| 20260506202016 | 11 | 352 | 3.2 | 12.9 | 0.00 | 0.00 | 0.00 | 72 | 1013.0 |
| 20260506201538 | 11 | 360 | 1.6 | 12.9 | 0.00 | 0.00 | 0.00 | 72 | 1013.0 |
| 20260506201015 | 11 | 5 | 3.2 | 6.4 | 0.00 | 0.00 | 0.00 | 72 | 1012.9 |
| 20260506200515 | 11 | 5 | 1.6 | 8.0 | 0.00 | 0.00 | 0.00 | 72 | 1012.9 |
| 20260506200032 | 11 | 5 | 3.2 | 8.0 | 0.00 | 0.00 | 0.00 | 72 | 1012.8 |
| 20260506195516 | 11 | 5 | 3.2 | 9.7 | 0.00 | 0.00 | 0.00 | 72 | 1012.7 |
| 20260506195015 | 11 | 5 | 3.2 | 9.7 | 0.00 | 0.00 | 0.00 | 72 | 1012.6 |
| 20260506194532 | 12 | 5 | 1.6 | 6.4 | 0.00 | 0.00 | 0.00 | 72 | 1012.5 |
| 20260506194017 | 12 | 5 | 3.2 | 6.4 | 0.00 | 0.00 | 0.00 | 71 | 1012.4 |
| 20260506193515 | 12 | 5 | 1.6 | 8.0 | 0.00 | 0.00 | 0.00 | 71 | 1012.4 |
| 20260506193031 | 12 | 360 | 1.6 | 8.0 | 0.00 | 0.00 | 0.00 | 71 | 1012.3 |
| 20260506192515 | 12 | 360 | 1.6 | 6.4 | 0.00 | 0.00 | 0.00 | 71 | 1012.2 |
| 20260506192019 | 12 | 360 | 3.2 | 6.4 | 0.00 | 0.00 | 0.00 | 70 | 1012.1 |
| 20260506191533 | 12 | 0 | 1.6 | 9.7 | 0.00 | 0.00 | 0.00 | 69 | 1012.1 |
| 20260506191018 | 12 | 5 | 1.6 | 9.7 | 0.00 | 0.00 | 0.00 | 69 | 1012.0 |
| 20260506190516 | 12 | 5 | 1.6 | 9.7 | 0.00 | 0.00 | 0.00 | 69 | 1012.0 |
| 20260506190032 | 12 | 0 | 0.0 | 6.4 | 0.00 | 0.00 | 0.00 | 69 | 1011.9 |
| 20260506185515 | 12 | 360 | 1.6 | 8.0 | 0.00 | 0.00 | 0.00 | 68 | 1011.9 |
| 20260506185017 | 12 | 360 | 1.6 | 9.7 | 0.00 | 0.00 | 0.00 | 68 | 1011.8 |
| 20260506184533 | 12 | 352 | 3.2 | 9.7 | 0.00 | 0.00 | 0.00 | 68 | 1011.8 |
| 20260506184015 | 12 | 352 | 3.2 | 14.5 | 0.00 | 0.00 | 0.00 | 67 | 1011.8 |
| 20260506183518 | 12 | 93 | 3.2 | 14.5 | 0.00 | 0.00 | 0.00 | 67 | 1011.7 |
| 20260506183034 | 12 | 97 | 3.2 | 14.5 | 0.00 | 0.00 | 0.00 | 67 | 1011.6 |
| 20260506182515 | 12 | 345 | 4.8 | 14.5 | 0.00 | 0.00 | 0.00 | 67 | 1011.5 |
| 20260506182014 | 12 | 30 | 3.2 | 11.3 | 0.00 | 0.00 | 0.00 | 67 | 1011.5 |
| 20260506181532 | 12 | 16 | 3.2 | 8.0 | 0.00 | 0.00 | 0.00 | 66 | 1011.5 |
| 20260506181016 | 12 | 16 | 3.2 | 8.0 | 0.00 | 0.00 | 0.00 | 66 | 1011.5 |
| 20260506180516 | 12 | 19 | 1.6 | 8.0 | 0.00 | 0.00 | 0.00 | 66 | 1011.4 |
| 20260506180038 | 13 | 15 | 3.2 | 9.7 | 0.00 | 0.00 | 0.00 | 65 | 1011.3 |
| 20260506175516 | 13 | 18 | 3.2 | 9.7 | 0.00 | 0.00 | 0.00 | 64 | 1011.3 |
| 20260506175017 | 13 | 24 | 3.2 | 9.7 | 0.00 | 0.00 | 0.00 | 63 | 1011.2 |
| 20260506174536 | 13 | 5 | 1.6 | 6.4 | 0.00 | 0.00 | 0.00 | 62 | 1011.2 |
| 20260506174016 | 13 | 5 | 1.6 | 6.4 | 0.00 | 0.00 | 0.00 | 61 | 1011.0 |
| 20260506173515 | 13 | 5 | 1.6 | 9.7 | 0.00 | 0.00 | 0.00 | 60 | 1011.0 |
| 20260506173031 | 13 | 360 | 3.2 | 12.9 | 0.00 | 0.00 | 0.00 | 59 | 1011.0 |
| 20260506172515 | 13 | 69 | 3.2 | 12.9 | 0.00 | 0.00 | 0.00 | 59 | 1011.0 |
| 20260506172017 | 13 | 21 | 3.2 | 12.9 | 0.00 | 0.00 | 0.00 | 59 | 1011.0 |
| 20260506171545 | 13 | 360 | 3.2 | 12.9 | 0.00 | 0.00 | 0.00 | 59 | 1010.9 |
| 20260506171017 | 13 | 0 | 4.8 | 12.9 | 0.00 | 0.00 | 0.00 | 59 | 1010.8 |
| 20260506170517 | 13 | 5 | 4.8 | 11.3 | 0.00 | 0.00 | 0.00 | 59 | 1010.8 |
| 20260506170045 | 13 | 5 | 3.2 | 9.7 | 0.00 | 0.00 | 0.00 | 59 | 1010.8 |
| 20260506165520 | 13 | 5 | 3.2 | 12.9 | 0.00 | 0.00 | 0.00 | 57 | 1010.9 |
| 20260506165019 | 13 | 5 | 3.2 | 12.9 | 0.00 | 0.00 | 0.00 | 57 | 1010.8 |
| 20260506164539 | 13 | 5 | 4.8 | 12.9 | 0.00 | 0.00 | 0.00 | 56 | 1010.8 |
| 20260506164019 | 13 | 78 | 1.6 | 9.7 | 0.00 | 0.00 | 0.00 | 57 | 1010.9 |
| 20260506163518 | 14 | 83 | 1.6 | 9.7 | 0.00 | 0.00 | 0.00 | 55 | 1010.8 |
| 20260506163038 | 14 | 84 | 1.6 | 8.0 | 0.00 | 0.00 | 0.00 | 57 | 1010.8 |
| 20260506162516 | 14 | 80 | 1.6 | 6.4 | 0.00 | 0.00 | 0.00 | 57 | 1010.9 |
| 20260506162018 | 14 | 82 | 3.2 | 6.4 | 0.00 | 0.00 | 0.00 | 58 | 1010.7 |
| 20260506161542 | 14 | 63 | 1.6 | 9.7 | 0.00 | 0.00 | 0.00 | 57 | 1010.8 |
| 20260506161017 | 15 | 34 | 1.6 | 12.9 | 0.00 | 0.00 | 0.00 | 56 | 1010.8 |
| 20260506160518 | 15 | 0 | 3.2 | 12.9 | 0.00 | 0.00 | 0.00 | 56 | 1010.7 |
| 20260506160039 | 15 | 100 | 3.2 | 12.9 | 0.00 | 0.00 | 0.00 | 54 | 1010.7 |
| 20260506155515 | 15 | 114 | 3.2 | 12.9 | 0.00 | 0.00 | 0.00 | 56 | 1010.7 |
| 20260506155016 | 15 | 152 | 1.6 | 12.9 | 0.00 | 0.00 | 0.00 | 56 | 1010.7 |
| 20260506154535 | 15 | 88 | 3.2 | 12.9 | 0.00 | 0.00 | 0.00 | 53 | 1010.7 |
| 20260506154016 | 15 | 343 | 1.6 | 14.5 | 0.00 | 0.00 | 0.00 | 52 | 1010.7 |
| 20260506153517 | 15 | 40 | 3.2 | 14.5 | 0.00 | 0.00 | 0.00 | 52 | 1010.6 |
| 20260506153031 | 15 | 78 | 4.8 | 12.9 | 0.00 | 0.00 | 0.00 | 52 | 1010.7 |
| 20260506152520 | 15 | 101 | 1.6 | 9.7 | 0.00 | 0.00 | 0.00 | 54 | 1010.6 |
| 20260506152017 | 16 | 105 | 3.2 | 12.9 | 0.00 | 0.00 | 0.00 | 51 | 1010.5 |
| 20260506151541 | 16 | 54 | 3.2 | 14.5 | 0.00 | 0.00 | 0.00 | 50 | 1010.6 |
| 20260506151017 | 16 | 67 | 4.8 | 14.5 | 0.00 | 0.00 | 0.00 | 49 | 1010.5 |
| 20260506150518 | 16 | 323 | 3.2 | 16.1 | 0.00 | 0.00 | 0.00 | 49 | 1010.5 |
| 20260506150039 | 16 | 5 | 4.8 | 16.1 | 0.00 | 0.00 | 0.00 | 47 | 1010.5 |
| 20260506145518 | 15 | 349 | 8.0 | 20.9 | 0.00 | 0.00 | 0.00 | 46 | 1010.4 |
| 20260506145016 | 16 | 348 | 6.4 | 20.9 | 0.00 | 0.00 | 0.00 | 47 | 1010.3 |
| 20260506144550 | 16 | 98 | 6.4 | 20.9 | 0.00 | 0.00 | 0.00 | 46 | 1010.5 |
| 20260506144018 | 16 | 134 | 4.8 | 16.1 | 0.00 | 0.00 | 0.00 | 47 | 1010.5 |
| 20260506143517 | 15 | 98 | 4.8 | 16.1 | 0.00 | 0.00 | 0.00 | 47 | 1010.5 |
| 20260506143032 | 15 | 46 | 6.4 | 17.7 | 0.00 | 0.00 | 0.00 | 46 | 1010.6 |
| 20260506142519 | 15 | 127 | 6.4 | 17.7 | 0.00 | 0.00 | 0.00 | 47 | 1010.5 |
| 20260506142016 | 15 | 90 | 4.8 | 14.5 | 0.00 | 0.00 | 0.00 | 48 | 1010.5 |
| 20260506141534 | 15 | 24 | 4.8 | 14.5 | 0.00 | 0.00 | 0.00 | 49 | 1010.5 |
| 20260506141014 | 15 | 112 | 4.8 | 12.9 | 0.00 | 0.00 | 0.00 | 50 | 1010.6 |
| 20260506140516 | 15 | 17 | 3.2 | 14.5 | 0.00 | 0.00 | 0.00 | 50 | 1010.7 |
| 20260506140035 | 15 | 352 | 6.4 | 25.7 | 0.00 | 0.00 | 0.00 | 49 | 1010.6 |
| 20260506135517 | 15 | 326 | 9.7 | 25.7 | 0.00 | 0.00 | 0.00 | 49 | 1010.5 |
| 20260506135016 | 15 | 82 | 8.0 | 19.3 | 0.00 | 0.00 | 0.00 | 47 | 1010.5 |
| 20260506134533 | 15 | 351 | 8.0 | 17.7 | 0.00 | 0.00 | 0.00 | 48 | 1010.4 |
| 20260506134014 | 15 | 352 | 6.4 | 17.7 | 0.00 | 0.00 | 0.00 | 48 | 1010.3 |
| 20260506133515 | 16 | 352 | 4.8 | 16.1 | 0.00 | 0.00 | 0.00 | 50 | 1010.4 |
| 20260506133031 | 16 | 107 | 4.8 | 16.1 | 0.00 | 0.00 | 0.00 | 48 | 1010.4 |
| 20260506132516 | 16 | 82 | 4.8 | 14.5 | 0.00 | 0.00 | 0.00 | 50 | 1010.4 |
| 20260506132017 | 16 | 360 | 6.4 | 22.5 | 0.00 | 0.00 | 0.00 | 50 | 1010.3 |
| 20260506131542 | 16 | 5 | 6.4 | 22.5 | 0.00 | 0.00 | 0.00 | 48 | 1010.3 |
| 20260506131016 | 16 | 101 | 6.4 | 19.3 | 0.00 | 0.00 | 0.00 | 47 | 1010.3 |
| 20260506130517 | 16 | 71 | 4.8 | 22.5 | 0.00 | 0.00 | 0.00 | 49 | 1010.2 |
| 20260506130034 | 16 | 96 | 9.7 | 22.5 | 0.00 | 0.00 | 0.00 | 48 | 1010.2 |
| 20260506125515 | 16 | 115 | 6.4 | 20.9 | 0.00 | 0.00 | 0.00 | 49 | 1010.2 |
| 20260506125016 | 15 | 346 | 6.4 | 17.7 | 0.00 | 0.00 | 0.00 | 52 | 1010.2 |
| 20260506124535 | 15 | 38 | 4.8 | 16.1 | 0.00 | 0.00 | 0.00 | 53 | 1010.2 |
| 20260506124016 | 15 | 9 | 6.4 | 16.1 | 0.00 | 0.00 | 0.00 | 53 | 1010.3 |
| 20260506123515 | 15 | 360 | 6.4 | 16.1 | 0.00 | 0.00 | 0.00 | 55 | 1010.2 |
| 20260506123032 | 15 | 5 | 4.8 | 16.1 | 0.00 | 0.00 | 0.00 | 54 | 1010.1 |
| 20260506122514 | 15 | 111 | 4.8 | 14.5 | 0.00 | 0.00 | 0.00 | 55 | 1010.2 |
| 20260506122019 | 15 | 350 | 6.4 | 20.9 | 0.00 | 0.00 | 0.00 | 54 | 1010.2 |
| 20260506121530 | 15 | 0 | 3.2 | 20.9 | 0.00 | 0.00 | 0.00 | 58 | 1010.2 |
| 20260506121014 | 15 | 347 | 6.4 | 20.9 | 0.00 | 0.00 | 0.00 | 58 | 1010.2 |
| 20260506120517 | 16 | 15 | 6.4 | 17.7 | 0.00 | 0.00 | 0.00 | 57 | 1010.1 |
| 20260506120032 | 16 | 28 | 4.8 | 16.1 | 0.00 | 0.00 | 0.00 | 55 | 1010.1 |
| 20260506115516 | 15 | 5 | 4.8 | 12.9 | 0.00 | 0.00 | 0.00 | 58 | 1010.1 |
| 20260506115013 | 15 | 25 | 4.8 | 14.5 | 0.00 | 0.00 | 0.00 | 59 | 1010.0 |
| 20260506114538 | 15 | 360 | 4.8 | 17.7 | 0.00 | 0.00 | 0.00 | 58 | 1010.1 |
| 20260506114015 | 15 | 5 | 3.2 | 17.7 | 0.00 | 0.00 | 0.00 | 56 | 1010.1 |
| 20260506113519 | 15 | 352 | 6.4 | 17.7 | 0.00 | 0.00 | 0.00 | 54 | 1010.2 |
| 20260506113032 | 15 | 5 | 6.4 | 16.1 | 0.00 | 0.00 | 0.00 | 57 | 1010.1 |
| 20260506112519 | 15 | 26 | 4.8 | 16.1 | 0.00 | 0.00 | 0.00 | 58 | 1010.1 |
| 20260506112014 | 15 | 360 | 4.8 | 17.7 | 0.00 | 0.00 | 0.00 | 61 | 1010.1 |
| 20260506111532 | 14 | 5 | 4.8 | 17.7 | 0.00 | 0.00 | 0.00 | 62 | 1010.1 |
| 20260506111015 | 15 | 345 | 6.4 | 17.7 | 0.00 | 0.00 | 0.00 | 62 | 1010.2 |
| 20260506110519 | 15 | 24 | 4.8 | 12.9 | 0.00 | 0.00 | 0.00 | 66 | 1010.1 |
| 20260506110034 | 15 | 31 | 4.8 | 16.1 | 0.00 | 0.00 | 0.00 | 66 | 1010.1 |
| 20260506105519 | 14 | 352 | 4.8 | 17.7 | 0.00 | 0.00 | 0.00 | 68 | 1010.0 |
| 20260506105014 | 14 | 14 | 6.4 | 17.7 | 0.00 | 0.00 | 0.00 | 68 | 1010.0 |
| 20260506104534 | 14 | 348 | 4.8 | 12.9 | 0.00 | 0.00 | 0.00 | 67 | 1010.0 |
| 20260506104016 | 14 | 5 | 4.8 | 12.9 | 0.00 | 0.00 | 0.00 | 67 | 1010.0 |
| 20260506103517 | 14 | 360 | 4.8 | 12.9 | 0.00 | 0.00 | 0.00 | 67 | 1010.0 |
| 20260506103034 | 14 | 352 | 3.2 | 8.0 | 0.00 | 0.00 | 0.00 | 68 | 1010.1 |
| 20260506102515 | 14 | 352 | 3.2 | 12.9 | 0.00 | 0.00 | 0.00 | 68 | 1010.0 |
| 20260506102016 | 14 | 22 | 3.2 | 14.5 | 0.00 | 0.00 | 0.00 | 67 | 1010.0 |
| 20260506101533 | 14 | 360 | 4.8 | 17.7 | 0.00 | 0.00 | 0.00 | 66 | 1010.0 |
| 20260506101015 | 14 | 352 | 4.8 | 19.3 | 0.00 | 0.00 | 0.00 | 65 | 1009.9 |
| 20260506100515 | 15 | 5 | 4.8 | 19.3 | 0.00 | 0.00 | 0.00 | 62 | 1009.9 |
| 20260506100032 | 16 | 350 | 4.8 | 14.5 | 0.00 | 0.00 | 0.00 | 63 | 1009.7 |
| 20260506095516 | 15 | 349 | 4.8 | 14.5 | 0.00 | 0.00 | 0.00 | 64 | 1009.8 |
| 20260506095016 | 15 | 24 | 4.8 | 14.5 | 0.00 | 0.00 | 0.00 | 63 | 1009.8 |
| 20260506094529 | 15 | 336 | 3.2 | 14.5 | 0.00 | 0.00 | 0.00 | 65 | 1009.8 |
| 20260506094015 | 14 | 147 | 4.8 | 17.7 | 0.00 | 0.00 | 0.00 | 67 | 1009.8 |
| 20260506093520 | 14 | 88 | 6.4 | 17.7 | 0.00 | 0.00 | 0.00 | 68 | 1009.8 |
| 20260506093028 | 14 | 5 | 6.4 | 16.1 | 0.00 | 0.00 | 0.00 | 69 | 1009.9 |
| 20260506092520 | 14 | 347 | 4.8 | 14.5 | 0.00 | 0.00 | 0.00 | 69 | 1009.8 |
| 20260506092016 | 14 | 340 | 4.8 | 16.1 | 0.00 | 0.00 | 0.00 | 71 | 1009.7 |
| 20260506091533 | 14 | 350 | 4.8 | 16.1 | 0.00 | 0.00 | 0.00 | 71 | 1009.7 |
| 20260506091014 | 14 | 340 | 6.4 | 16.1 | 0.00 | 0.00 | 0.00 | 70 | 1009.7 |
| 20260506090515 | 14 | 352 | 6.4 | 16.1 | 0.00 | 0.00 | 0.00 | 70 | 1009.7 |
| 20260506090033 | 14 | 352 | 6.4 | 14.5 | 0.00 | 0.00 | 0.00 | 70 | 1009.7 |
| 20260506085515 | 13 | 17 | 4.8 | 17.7 | 0.00 | 0.00 | 0.00 | 70 | 1009.8 |
| 20260506085016 | 13 | 351 | 4.8 | 17.7 | 0.00 | 0.00 | 0.00 | 71 | 1009.7 |
| 20260506084539 | 13 | 15 | 6.4 | 17.7 | 0.00 | 0.00 | 0.00 | 69 | 1009.7 |
| 20260506084015 | 13 | 335 | 6.4 | 17.7 | 0.00 | 0.00 | 0.00 | 70 | 1009.6 |
| 20260506083516 | 13 | 333 | 6.4 | 17.7 | 0.00 | 0.00 | 0.00 | 73 | 1009.5 |
| 20260506083030 | 13 | 47 | 4.8 | 14.5 | 0.00 | 0.00 | 0.00 | 74 | 1009.6 |
| 20260506082515 | 13 | 11 | 3.2 | 17.7 | 0.00 | 0.00 | 0.00 | 74 | 1009.5 |
| 20260506082018 | 13 | 9 | 3.2 | 17.7 | 0.00 | 0.00 | 0.00 | 77 | 1009.6 |
| 20260506081528 | 12 | 352 | 4.8 | 17.7 | 0.00 | 0.00 | 0.00 | 76 | 1009.6 |
| 20260506081015 | 13 | 13 | 6.4 | 17.7 | 0.00 | 0.00 | 0.00 | 75 | 1009.7 |
| 20260506080516 | 13 | 360 | 4.8 | 16.1 | 0.00 | 0.00 | 0.00 | 75 | 1009.5 |
| 20260506073513 | 13 | 18 | 6.4 | 17.7 | 0.00 | 0.00 | 0.00 | 76 | 1009.6 |
| 20260506073032 | 13 | 29 | 6.4 | 17.7 | 0.00 | 0.00 | 0.00 | 76 | 1009.5 |
| 20260506072514 | 13 | 13 | 4.8 | 14.5 | 0.00 | 0.00 | 0.00 | 77 | 1009.5 |
| 20260506072016 | 13 | 20 | 3.2 | 12.9 | 0.00 | 0.00 | 0.00 | 77 | 1009.5 |
| 20260506071532 | 13 | 350 | 3.2 | 11.3 | 0.00 | 0.00 | 0.00 | 77 | 1009.5 |
| 20260506071014 | 12 | 360 | 4.8 | 12.9 | 0.00 | 0.00 | 0.00 | 78 | 1009.5 |
| 20260506070515 | 12 | 351 | 3.2 | 12.9 | 0.00 | 0.00 | 0.00 | 79 | 1009.5 |
| 20260506062515 | 11 | 5 | 4.8 | 17.7 | 0.00 | 0.00 | 0.00 | 82 | 1009.2 |
| 20260506062016 | 11 | 22 | 6.4 | 17.7 | 0.00 | 0.00 | 0.00 | 81 | 1009.2 |
| 20260506061531 | 11 | 5 | 4.8 | 16.1 | 0.00 | 0.00 | 0.00 | 82 | 1009.3 |
| 20260506061016 | 11 | 5 | 4.8 | 16.1 | 0.00 | 0.00 | 0.00 | 83 | 1009.2 |
| 20260506060515 | 11 | 22 | 6.4 | 19.3 | 0.00 | 0.00 | 0.00 | 83 | 1009.1 |
| 20260506051014 | 10 | 360 | 3.2 | 9.7 | 0.00 | 0.00 | 0.00 | 87 | 1009.0 |
| 20260506050514 | 10 | 0 | 3.2 | 14.5 | 0.00 | 0.00 | 0.00 | 87 | 1008.9 |
| 20260506045017 | 10 | 5 | 1.6 | 12.9 | 0.00 | 0.00 | 0.00 | 86 | 1009.0 |
| 20260506044540 | 10 | 11 | 3.2 | 16.1 | 0.00 | 0.00 | 0.00 | 86 | 1009.0 |
| 20260506044016 | 10 | 5 | 3.2 | 16.1 | 0.00 | 0.00 | 0.00 | 86 | 1009.1 |
| 20260506043516 | 10 | 33 | 4.8 | 16.1 | 0.00 | 0.00 | 0.00 | 86 | 1009.0 |
| 20260506043031 | 10 | 352 | 3.2 | 14.5 | 0.00 | 0.00 | 0.00 | 86 | 1008.9 |
| 20260506042519 | 10 | 352 | 3.2 | 9.7 | 0.00 | 0.00 | 0.00 | 86 | 1009.0 |
| 20260506042019 | 9 | 352 | 3.2 | 9.7 | 0.00 | 0.00 | 0.00 | 86 | 1009.0 |
| 20260506041533 | 9 | 5 | 4.8 | 14.5 | 0.00 | 0.00 | 0.00 | 86 | 1009.0 |
| 20260506041016 | 9 | 360 | 4.8 | 14.5 | 0.00 | 0.00 | 0.00 | 86 | 1009.1 |
| 20260506040518 | 9 | 11 | 1.6 | 12.9 | 0.00 | 0.00 | 0.00 | 86 | 1009.1 |
| 20260506040033 | 9 | 11 | 4.8 | 12.9 | 0.00 | 0.00 | 0.00 | 86 | 1009.1 |
| 20260506035521 | 9 | 360 | 3.2 | 12.9 | 0.00 | 0.00 | 0.00 | 86 | 1009.2 |
| 20260506035016 | 9 | 351 | 3.2 | 12.9 | 0.00 | 0.00 | 0.00 | 86 | 1009.1 |
| 20260506034532 | 9 | 350 | 3.2 | 12.9 | 0.00 | 0.00 | 0.00 | 86 | 1009.0 |
| 20260506034018 | 9 | 5 | 1.6 | 8.0 | 0.00 | 0.00 | 0.00 | 86 | 1009.2 |
| 20260506033517 | 9 | 5 | 1.6 | 8.0 | 0.00 | 0.00 | 0.00 | 86 | 1009.2 |
| 20260506033036 | 9 | 5 | 1.6 | 8.0 | 0.00 | 0.00 | 0.00 | 87 | 1009.1 |
| 20260506032518 | 9 | 5 | 1.6 | 11.3 | 0.00 | 0.00 | 0.00 | 87 | 1009.3 |
| 20260506032017 | 9 | 12 | 1.6 | 11.3 | 0.00 | 0.00 | 0.00 | 87 | 1009.2 |
| 20260506031536 | 9 | 20 | 1.6 | 6.4 | 0.00 | 0.00 | 0.00 | 87 | 1009.2 |
| 20260506031016 | 9 | 0 | 1.6 | 9.7 | 0.00 | 0.00 | 0.00 | 87 | 1009.3 |
| 20260506030519 | 9 | 13 | 1.6 | 9.7 | 0.00 | 0.00 | 0.00 | 88 | 1009.4 |
| 20260506030054 | 9 | 5 | 1.6 | 9.7 | 0.00 | 0.00 | 0.00 | 87 | 1009.4 |
| 20260506025517 | 9 | 5 | 3.2 | 9.7 | 0.00 | 0.00 | 0.00 | 88 | 1009.4 |
| 20260506025019 | 9 | 5 | 1.6 | 9.7 | 0.00 | 0.00 | 0.00 | 88 | 1009.5 |
| 20260506024542 | 9 | 5 | 3.2 | 11.3 | 0.00 | 0.00 | 0.00 | 88 | 1009.4 |
| 20260506024015 | 8 | 13 | 3.2 | 11.3 | 0.00 | 0.00 | 0.00 | 88 | 1009.5 |
| 20260506023517 | 8 | 360 | 1.6 | 12.9 | 0.00 | 0.00 | 0.00 | 88 | 1009.5 |
| 20260506023035 | 8 | 360 | 3.2 | 12.9 | 0.00 | 0.00 | 0.00 | 88 | 1009.5 |
| 20260506022517 | 8 | 5 | 1.6 | 9.7 | 0.00 | 0.00 | 0.00 | 89 | 1009.6 |
| 20260506022017 | 8 | 5 | 1.6 | 9.7 | 0.00 | 0.00 | 0.00 | 89 | 1009.5 |
| 20260506021533 | 8 | 10 | 1.6 | 8.0 | 0.00 | 0.00 | 0.00 | 89 | 1009.6 |
| 20260506021017 | 8 | 0 | 3.2 | 9.7 | 0.00 | 0.00 | 0.00 | 89 | 1009.6 |
| 20260506020522 | 8 | 5 | 3.2 | 12.9 | 0.00 | 0.00 | 0.00 | 89 | 1009.6 |
| 20260506020033 | 8 | 5 | 1.6 | 12.9 | 0.00 | 0.00 | 0.00 | 89 | 1009.7 |
| 20260506015517 | 8 | 5 | 3.2 | 12.9 | 0.00 | 0.00 | 0.00 | 89 | 1009.7 |
| 20260506015027 | 8 | 9 | 1.6 | 9.7 | 0.00 | 0.00 | 0.00 | 89 | 1009.7 |
| 20260506014534 | 8 | 13 | 1.6 | 8.0 | 0.00 | 0.00 | 0.00 | 89 | 1009.6 |
| 20260506014015 | 8 | 13 | 1.6 | 8.0 | 0.00 | 0.00 | 0.00 | 89 | 1009.6 |
| 20260506013515 | 7 | 9 | 1.6 | 8.0 | 0.00 | 0.00 | 0.00 | 89 | 1009.6 |
| 20260506013032 | 7 | 0 | 0.0 | 8.0 | 0.00 | 0.00 | 0.00 | 89 | 1009.7 |
| 20260506012513 | 8 | 9 | 1.6 | 9.7 | 0.00 | 0.00 | 0.00 | 89 | 1009.7 |
| 20260506012016 | 8 | 10 | 1.6 | 11.3 | 0.00 | 0.00 | 0.00 | 89 | 1009.7 |
| 20260506011536 | 8 | 9 | 3.2 | 11.3 | 0.00 | 0.00 | 0.00 | 89 | 1009.7 |
| 20260506011020 | 8 | 10 | 1.6 | 8.0 | 0.00 | 0.00 | 0.00 | 89 | 1009.7 |
| 20260506010515 | 8 | 9 | 1.6 | 8.0 | 0.00 | 0.00 | 0.00 | 88 | 1009.7 |
| 20260506010030 | 8 | 9 | 1.6 | 8.0 | 0.00 | 0.00 | 0.00 | 88 | 1009.9 |
| 20260506005515 | 8 | 0 | 1.6 | 8.0 | 0.00 | 0.00 | 0.00 | 88 | 1009.8 |
| 20260506005015 | 8 | 11 | 3.2 | 8.0 | 0.00 | 0.00 | 0.00 | 88 | 1009.8 |
| 20260506004543 | 8 | 5 | 1.6 | 8.0 | 0.00 | 0.00 | 0.00 | 88 | 1009.9 |
| 20260506004015 | 8 | 5 | 1.6 | 11.3 | 0.00 | 0.00 | 0.00 | 87 | 1009.9 |
| 20260506003515 | 8 | 12 | 3.2 | 11.3 | 0.00 | 0.00 | 0.00 | 87 | 1010.0 |
| 20260506003038 | 8 | 350 | 1.6 | 11.3 | 0.00 | 0.00 | 0.00 | 87 | 1010.0 |
| 20260506002516 | 8 | 5 | 3.2 | 11.3 | 0.00 | 0.00 | 0.00 | 87 | 1010.1 |
| 20260506002017 | 8 | 5 | 1.6 | 9.7 | 0.00 | 0.00 | 0.00 | 87 | 1010.1 |
| 20260506001531 | 8 | 5 | 3.2 | 9.7 | 0.00 | 0.00 | 0.00 | 86 | 1010.1 |
| 20260506001014 | 8 | 346 | 3.2 | 11.3 | 0.00 | 0.00 | 0.00 | 86 | 1010.2 |
| 20260506000516 | 8 | 11 | 3.2 | 11.3 | 0.00 | 0.00 | 0.00 | 86 | 1010.2 |
| 20260506000030 | 8 | 0 | 3.2 | 12.9 | 0.00 | 0.00 | 0.00 | 86 | 1010.2 |
| 20260505235514 | 8 | 360 | 3.2 | 12.9 | 0.00 | 0.00 | 0.00 | 86 | 1010.2 |
| 20260505235016 | 8 | 15 | 1.6 | 12.9 | 0.00 | 0.00 | 0.00 | 86 | 1010.2 |
| 20260505234533 | 8 | 5 | 3.2 | 9.7 | 0.00 | 0.00 | 0.00 | 86 | 1010.3 |
| 20260505234016 | 8 | 10 | 1.6 | 6.4 | 0.00 | 0.00 | 0.00 | 86 | 1010.3 |
| 20260505233518 | 7 | 11 | 1.6 | 6.4 | 0.00 | 0.00 | 0.00 | 86 | 1010.4 |
| 20260505233032 | 7 | 9 | 1.6 | 9.7 | 0.00 | 0.00 | 0.00 | 86 | 1010.4 |
| 20260505232513 | 7 | 9 | 1.6 | 11.3 | 0.00 | 0.00 | 0.00 | 86 | 1010.5 |
| 20260505232013 | 7 | 12 | 3.2 | 11.3 | 0.00 | 0.00 | 0.00 | 85 | 1010.5 |
| 20260505231532 | 7 | 15 | 3.2 | 8.0 | 0.00 | 0.00 | 0.00 | 85 | 1010.6 |
| 20260505231014 | 7 | 17 | 1.6 | 8.0 | 0.00 | 0.00 | 0.00 | 85 | 1010.6 |
| 20260505230514 | 7 | 18 | 1.6 | 12.9 | 0.00 | 0.00 | 0.00 | 85 | 1010.6 |
| 20260505230041 | 8 | 17 | 1.6 | 12.9 | 0.00 | 0.00 | 0.00 | 85 | 1010.5 |
| 20260505225515 | 8 | 18 | 3.2 | 12.9 | 0.00 | 0.00 | 0.00 | 85 | 1010.6 |
| 20260505225020 | 8 | 21 | 1.6 | 12.9 | 0.00 | 0.00 | 0.00 | 84 | 1010.6 |